Regional Weather Roundup
Issued by NWS

Home | Current Version | Previous Version | Graphics & Text | Print | Product List | Glossary On
Versions: 1 2 3 4 5 6 7 8 9 10 11 12 13 14 15 16 17 18 19 20 21 22 23 24 25 26 27 28 29 30 31 32 33 34 35 36 37 38 39 40 41 42 43 44 45 46 47 48 49 50
000
ASUS45 KBOU 032107
RWRCO

WEATHER ROUNDUP FOR COLORADO
NATIONAL WEATHER SERVICE DENVER/BOULDER CO
200 PM MST TUE MAR 03 2015

NOTE: "FAIR" INDICATES FEW OR NO CLOUDS BELOW 12000 FEET WITH NO
SIGNIFICANT WEATHER AND/OR OBSTRUCTIONS TO VISIBILITY.

COZ001>005-013-030-031-032200-
...NORTHWEST COLORADO...

CITY           SKY/WX    TMP DP  RH WIND       PRES   REMARKS
CRAIG          LGT SNOW  32  28  85 W15       29.69F FOG     WCI  22
HAYDEN         PTSUNNY   30  21  69 W13       29.67F WCI  20
MEEKER         PTSUNNY   41  21  44 SW24G33   29.67F
MOUNT WERNER   NOT AVBL
STEAMBOAT SPGS PTSUNNY   31  24  75 CALM      29.67F
WALDEN         CLOUDY    28  19  69 W16       29.63F WCI  17
$$

COZ006>008-011-032200-
...WEST CENTRAL VALLEYS...

CITY           SKY/WX    TMP DP  RH WIND       PRES   REMARKS
GRAND JUNCTION PTSUNNY   44  28  53 SE5       29.73F
MONTROSE       FLURRIES  35  27  72 SW17G31   29.77F WCI  25
EAGLE          PTSUNNY   32  28  86 SW13      29.71F WCI  22
RIFLE          LGT SNOW  37  30  75 W9        29.70F
DELTA          PTSUNNY   46  26  45 SW22G28   29.74F
NUCLA          PTSUNNY   41  28  60 SW16      29.80F
$$

COZ017>023-064>068-032200-
...SOUTHWEST COLORADO...

CITY           SKY/WX    TMP DP  RH WIND       PRES   REMARKS
DURANGO        CLOUDY    35  25  66 SW8       29.80F WCI  29
CORTEZ         FLURRIES  36  32  85 W7        29.82F
PAGOSA SPRINGS FLURRIES  32  25  73 SW6       29.80F WCI  27
TELLURIDE      FLURRIES  27  19  69 S8        29.76F WCI  19
WOLF CREEK PAS CLOUDY    12  10  92 SW9G25    29.75F WCI   0
$$

COZ009-010-012-014-032>034-037-058>063-032200-
...CENTRAL COLORADO...

CITY           SKY/WX    TMP DP  RH WIND       PRES   REMARKS
ASPEN          CLOUDY    31  19  61 VRB7      29.68F WCI  24
BUENA VISTA    CLOUDY    34  19  53 SE16G24   29.66F WCI  24
COPPER MTN     NOT AVBL
BERTHOUD PASS  SNOW       9   3  78 W18G24    29.63F VSB 1/4 WCI -10
COTTONWOOD PAS CLOUDY    32   7  34 W14G26    29.66F WCI  22
GUNNISON       PTSUNNY   34  16  47 S13G18    29.72F WCI  25
KREMMLING      PTSUNNY   36  19  51 SW18G24   29.66F
LEADVILLE      CLOUDY    21  14  74 S18       29.64F WCI   6
SALIDA         CLOUDY    37  18  44 S10G23    29.74F
SUNLIGHT       HVY SNOW  23  19  86 CALM        N/A  VSB<1/4
WILKERSON PASS CLOUDY    27  12  54 S8G20     29.66F WCI  18
$$

COZ069>075-032200-
...SAN LUIS VALLEY/SANGRE DE CRISTO MOUNTAINS...

CITY           SKY/WX    TMP DP  RH WIND       PRES   REMARKS
ALAMOSA        FAIR      37  19  48 S25G33    29.73F
LA VETA PASS   PTSUNNY   32  14  47 S14G24    29.73F WCI  22
SAGUACHE       MOSUNNY   37  21  52 S10G20    29.70F
$$

COZ035-036-038>040-032200-
...NORTHERN COLORADO FRONT RANGE...

CITY           SKY/WX    TMP DP  RH WIND       PRES   REMARKS
DENVER INTL AP LGT SNOW  19  13  77 NE8       29.83F WCI   9
DMNS CITY PARK   N/A     19  13  76 NE6       29.84S WCI  11
AURORA         LGT SNOW  18  14  84 NE6       29.82F FOG     WCI  10
FRONT RANGE AP NOT AVBL
ERIE MUNI ARPT LGT SNOW  22  14  71 NE3       29.85F
BOULDER MUN AP LGT SNOW  23  16  74 CALM      29.84F
CENTENNIAL     CLOUDY    18  14  84 NE6       29.81F FOG     WCI  10
BROOMFIELD     NOT AVBL
FORT COLLINS   PTSUNNY   25  12  58 SE6       29.86F WCI  18
LONGMONT       LGT SNOW  28  15  58 SE3       29.87F
$$

COZ041-046-047-076>085-087-088-032200-
...PIKES PEAK/PALMER DIVIDE AND SOUTHERN FOOTHILLS...

CITY           SKY/WX    TMP DP  RH WIND       PRES   REMARKS
COLO. SPRINGS  MOSUNNY   28  19  69 E12       29.76F WCI  18
A. F. ACADEMY  PTSUNNY   24  17  74 NW10      29.74F WCI  14
ELLICOTT       NOT AVBL
FALCON         PTSUNNY   25  18  73 NE12G17   29.75F WCI  15
FORT CARSON    PTSUNNY   29  20  69 E12       29.77S WCI  19
LIMON          NOT AVBL
MONUMENT HILL  FOG       18  14  86 E7        29.74F VSB 1/4 WCI   8
TRINIDAD       PTSUNNY   38  31  76 N20G25    29.73R
$$

COZ042>045-048>051-090-091-032200-
...NORTHEAST COLORADO...

CITY           SKY/WX    TMP DP  RH WIND       PRES   REMARKS
GREELEY ARPT   PTSUNNY   27   9  46 E6        29.85F WCI  20
AKRON          MOSUNNY   26  11  52 NE13      29.85F WCI  15
BURLINGTON     CLOUDY    26  15  63 N15       29.88F WCI  14
WRAY           SUNNY     32  13  44 N13G22    29.90F WCI  23
STERLING       MOSUNNY   28  12  50 NE13      29.88F WCI  18
HOLYOKE        NOT AVBL
FORT MORGAN    CLOUDY    26  13  58 NE7       29.87F WCI  18
$$

COZ086-089-092>099-032200-
...SOUTHEAST COLORADO...

CITY           SKY/WX    TMP DP  RH WIND       PRES   REMARKS
PUEBLO         CLOUDY    33  24  69 E17       29.81S WCI  22
LA JUNTA       CLOUDY    33  26  75 NE17      29.82F WCI  22
LAMAR          CLOUDY    32  25  75 NE16      29.82F WCI  21
SPRINGFIELD      N/A     33  29  85 NE17      29.79F WCI  22
$$


USA.gov is the U.S. government's official web portal to all federal, state and local government web resources and services.